NUSAT-15 (KATHERINE) (46830 NORAD) Tracking and Keplerian Element Data
This shows tracking and keplerian element data for the satellite.
Feedback or suggestion? Click here.
Element | Value |
Catalog | 46830 |
Name | NUSAT-15 (KATHERINE) |
Epoch Orbit | 1071 |
Epoch Day | 15.1420998 |
Epoch Year | 2021 |
RAAN | 92.053 |
Inclination | 97.2632 |
Eccentricity | 0.0004754 |
Argument of Perigee | 5.8883 |
Mean Anonmoly | 78.5456 |
Mean Motion | 15.32932296 |
Decay Rate | 6.48E-06 |
L1 | 1 46830U 20079D 21015.14209980 .00000648 00000-0 22750-4 0 9999 |
L2 | 2 46830 97.2632 92.0530 0004754 5.8883 78.5456 15.32932296 10719 |
Live tracking and technical data element details for NUSAT-15 (KATHERINE) (NORAD 46830). NUSAT-15 (KATHERINE) can be tracked NOW for your location showing map with azimuth and elevation plus other details from your city location.
Track the satellite on the map from your city or location and see movement details for azimuth, elevation, latitude, longitude, range, height, and movement on the map or in text.
IsCatalogInMostPopularTable: catalog: 46830, numindb: 31
Update: records affected: 1
GetName: 46830 NUSAT-15 (KATHERINE)
Hit Count: updated at: Fri, 15 Jan 2021 23:52:05 GMT